Regional Weather Roundup
Issued by NWS

Home | Current Version | Previous Version | Graphics & Text | Print | Product List | Glossary On
Versions: 1 2 3 4 5 6 7 8 9 10 11 12 13 14 15 16 17 18 19 20 21 22 23 24 25 26 27 28 29 30 31 32 33 34 35 36 37 38 39 40 41 42 43 44 45 46 47 48 49 50
000
ASUS43 KMKX 061459
RWRWI

WISCONSIN REGIONAL WEATHER ROUNDUP
NATIONAL WEATHER SERVICE MILWAUKEE/SULLIVAN WI
900 AM CST FRI MAR 06 2015

NOTE: "FAIR" INDICATES FEW OR NO CLOUDS BELOW 12,000 FEET WITH NO
SIGNIFICANT WEATHER AND/OR OBSTRUCTIONS TO VISIBILITY.

WIZ001-002-006>008-014>016-023>028-061600-
NORTHWEST WISCONSIN

CITY           SKY/WX    TMP DP  RH WIND       PRES   REMARKS
SUPERIOR ARPT  SUNNY     16   5  62 SW12      30.01F WCI   3
ASHLAND        PTSUNNY   14   2  58 S8        30.02R WCI   3
HAYWARD        CLOUDY    12   1  61 S12       30.03R WCI  -2
SIREN          PTSUNNY   18   6  60 SW9       30.04R WCI   7
CUMBERLAND     CLOUDY    12   3  67 S7        30.03S WCI   2
RICE LAKE      CLOUDY    12   3  66 S7        30.07S WCI   2
CHETEK         CLOUDY    12   2  64 S8        30.07S WCI   1
LADYSMITH      CLOUDY    10   1  68 S9        30.08F WCI  -4
EAU CLAIRE     NOT AVBL
MENOMONIE      CLOUDY    15   3  60 S10       30.10F WCI   2
NEW RICHMOND   PTSUNNY   17   6  62 S13G20    30.06S WCI   4
OSCEOLA        CLOUDY    16   6  64 S5        30.09R WCI   9
$$

WIZ003>005-009-010-017-018-061600-
NORTH CENTRAL WISCONSIN

CITY           SKY/WX    TMP DP  RH WIND       PRES   REMARKS
MANITOWISH WTR MOSUNNY   10  -1  63 SW14      29.98F WCI  -7
ARBOR VITAE    PTSUNNY    9   1  69 S10       30.00F WCI  -5
WOODRUFF       PTSUNNY    9   1  69 S10       30.00F WCI  -5
RHINELANDER    CLOUDY     9  -2  61 SW18G25   30.02F WCI -10
EAGLE RIVER    SUNNY     10  -2  58 SW10G21   30.01F WCI  -4
LAND O LAKES   CLOUDY    11   0  60 SW9G18    30.00S WCI  -2
PHILLIPS       CLOUDY    10   0  62 SW10      30.02F WCI  -4
TOMAHAWK       CLOUDY     6  -2  68 CALM      30.06F
MEDFORD        PTSUNNY    8  -1  66 S10       30.07F WCI  -7
MERRILL        PTSUNNY    7  -3  66 SW7       30.10F WCI  -5
$$

WIZ029-030-035-036-043>047-061600-
CENTRAL WISCONSIN

CITY           SKY/WX    TMP DP  RH WIND       PRES   REMARKS
WAUSAU         MOSUNNY    8  -1  66 S8        30.11F WCI  -4
MOSINEE        SUNNY      9  18 100 S14       30.14S WCI  -8
MARSHFIELD     MOSUNNY   11   0  61 SW15      30.11F WCI  -5
STEVENS POINT  SUNNY      8  -2  65 SW12      30.16F WCI  -8
WAUPACA        MOSUNNY   11   0  62 S9        30.22S WCI  -2
WAUTOMA        NOT AVBL
WISC RAPIDS    SUNNY     12   0  58 SW13G23   30.18F WCI  -3
CAMP DOUGLAS   NOT AVBL
$$

WIZ011>013-019>022-031-037>040-048>050-061600-
NORTHEAST WISCONSIN

CITY           SKY/WX    TMP DP  RH WIND       PRES   REMARKS
ANTIGO         PTSUNNY    6  -2  70 SW9       30.10S WCI  -8
SHAWANO        MOSUNNY   10  -1  59 SW10      30.20F WCI  -4
OCONTO         PTSUNNY   10  -1  59 SW9       30.21F WCI  -2
STURGEON BAY   CLOUDY    12   0  57 SW16G22   30.21F WCI  -4
GREEN BAY      CLOUDY     9   0  67 SW20      30.23F WCI -10
MANITOWOC      NOT AVBL
APPLETON       PTSUNNY    9   0  66 S13       30.22F WCI  -7
CLINTONVILLE   PTSUNNY    9   0  66 S12       30.20F WCI  -6
OSHKOSH        PTSUNNY   11   1  64 S15G24    30.23F WCI  -5
$$

WIZ032>034-041-042-053>061-061600-
SOUTHWEST WISCONSIN

CITY           SKY/WX    TMP DP  RH WIND       PRES   REMARKS
LA CROSSE      SUNNY     15   3  59 S13       30.19F WCI   1
SPARTA         SUNNY     16   3  56 SW9       30.19F WCI   4
VIROQUA        SUNNY     11   2  67 S9        30.17S WCI  -2
BOSCOBEL       SUNNY     16   3  56 S12       30.25F WCI   3
PRAIRIE DU CHI SUNNY     14   2  59 CALM      30.25S
PLATTEVILLE    SUNNY     11   3  70 S17       30.25S WCI  -6
$$

WIZ056-057-062-063-064-067-068-061600-
SOUTH CENTRAL WISCONSIN

CITY           SKY/WX    TMP DP  RH WIND       PRES   REMARKS
REEDSBURG      MOSUNNY   10   1  68 S5        30.22F WCI   1
BARABOO/DELLS  SUNNY     13   2  60 S16G22    30.20F WCI  -3
LONE ROCK      NOT AVBL
MINERAL POINT  SUNNY     10   1  67 S10G17    30.22F WCI  -3
MADISON        FAIR      11   1  64 S15       30.26F WCI  -5
MIDDLETON      FAIR      12   0  58 S9        30.26F WCI   0
WATERTOWN      PTSUNNY   11   2  65 S10       30.29F WCI  -2
MONROE         SUNNY     10   3  72 S17       30.25F WCI  -7
JANESVILLE     NOT AVBL
$$

WIZ051-052-058>065-066-070>072-061600-
SOUTHEAST WISCONSIN

CITY           SKY/WX    TMP DP  RH WIND       PRES   REMARKS
MILWAUKEE      PTSUNNY   10  -2  58 SW22G29   30.33F WCI -10
WAUKESHA       SUNNY      9  -2  61 S13       30.32F WCI  -7
MILWAUKEE/TIMM NOT AVBL
RACINE         SUNNY     11   0  61 SW13      30.36F WCI  -4
BURLINGTON     SUNNY      9  -1  64 S14       30.34F WCI  -8
KENOSHA        SUNNY     12   1  61 SW15G21   30.35F WCI  -4
FOND DU LAC    PTSUNNY   13   1  59 S17G24    30.24F WCI  -4
SHEBOYGAN      MOSUNNY   13   2  61 SW15      30.27F WCI  -3
WEST BEND      MOSUNNY   12   0  57 SW13      30.29F WCI  -3
JUNEAU         MOSUNNY    8   0  68 S14       30.28F WCI  -8
$$

LSZ147-162-061600-
LAKE SUPERIOR

STATION/POSITION TIME  TEMP    WIND        PRES    WAVE
                       AIR SEA DIR/SP/G            HT/PER
                 (UTC) (F)     (DEG/KT/KT) (MB)    (FT/S)
DEVILS ISLAND    1400   15     230/ 20/ 25 1016.8R
PORT WING        1440   17     210/ 11/ 16 1016.3F
SAXON HARBOR     1400   16     190/ 11/ 15 1015.9
$$

LMZ867-665-643>646-061600-
LAKE MICHIGAN

STATION/POSITION TIME  TEMP    WIND        PRES    WAVE
                       AIR SEA DIR/SP/G            HT/PER
                 (UTC) (F)     (DEG/KT/KT) (MB)    (FT/S)
NORTHPORT PIER   1401   12     200/  5/ 16 1023.0F
KEWAUNEE LAKESHO 1400    9     240/ 11/ 17 1023.5F
SHEBOYGAN LAKESH 1400    9     210/ 12/ 14 1028.0F
PORT WASHINGTON  1440   15     240/  8/ 15 1027.4F
MILWAUKEE LAKESH 1400    9     230/ 14/ 18   N/A
KENOSHA   LAKESH 1400    8     210/ 10/ 15 1028.4F
$$

TC  - TEMPERATURE IN CELSIUS
VSB - VISIBILITY IN STATUTE MILES
WCI - WIND CHILL INDEX
HX  - HEAT INDEX



USA.gov is the U.S. government's official web portal to all federal, state and local government web resources and services.